CAPE
419 144 367 20 58 143 627 733 930 975 1131 1189 1162 1077 985 768 603 418 250 120 53 0 0 0 18 0 0 0 0 0 0 0
24 68 97 8 8 40 299 597 576 494 563 578 669 812 793 623 392 318 189 127 63 0 0 0 0 0 0 0 0 0 0 0
15 4 4 22 13 79 153 422 365 263 213 113 92 128 189 77 170 212 184 85 65 0 0 0 0 0 0 0 0 0 0 0
7 1 1 3 16 33 172 284 140 41 3 0 0 3 36 86 126 143 107 77 64 12 0 0 0 0 0 0 0 0 0 0
1 5 1 0 0 1 66 57 17 0 0 5 9 2 22 28 19 25 38 60 23 1 0 0 0 0 0 0 0 0 0 0
3 0 3 3 0 0 29 11 0 0 0 5 1 0 2 4 0 0 0 0 0 0 0 0 0 0 0 0 0 0 0 0
2 1 8 5 0 0 6 0 0 1 8 0 0 0 2 3 0 0 0 0 0 0 0 0 0 0 0 0 0 0 0 0
0 1 2 0 0 0 0 0 0 10 23 4 0 3 8 3 0 0 0 0 0 0 0 0 0 0 0 0 0 0 0 0
1 0 0 0 0 0 0 0 0 26 43 38 15 15 23 15 12 0 0 0 0 0 0 0 0 0 0 0 0 0 0 0
6 1 0 0 0 0 0 0 0 0 0 26 56 86 97 59 19 15 1 0 0 0 0 0 0 0 0 0 0 0 0 0
2 5 0 0 0 0 0 0 0 0 0 0 42 50 131 109 25 10 0 0 0 0 0 0 0 0 0 0 0 0 0 0
1 0 0 0 0 0 0 0 0 0 0 0 0 48 64 48 40 12 0 0 0 0 0 0 0 0 0 0 0 0 0 0
0 0 0 0 0 0 0 0 0 0 0 0 3 14 69 71 7 0 0 0 0 0 0 0 0 0 0 0 0 0 0 0
0 0 0 0 0 0 0 0 0 0 0 0 0 0 8 63 29 1 0 0 0 0 0 0 0 0 0 0 0 0 0 0
0 0 0 0 0 0 0 0 0 0 0 0 0 0 0 16 12 0 0 0 0 0 0 0 0 0 0 0 0 0 0 0
0 0 0 0 0 0 0 0 0 0 0 0 0 1 11 13 2 0 0 0 0 0 0 0 0 0 0 0 0 0 0 0
0 0 0 0 0 0 0 0 0 0 0 0 1 9 20 27 0 0 0 0 0 0 0 0 0 0 0 0 0 0 0 0
0 0 0 0 0 0 0 0 0 0 0 0 0 41 40 15 0 0 0 0 0 0 0 0 0 0 0 0 0 0 0 0
0 0 0 0 0 0 0 0 0 0 0 0 0 12 1 0 0 0 0 0 0 0 0 0 0 0 0 0 0 0 0 0
0 0 0 0 0 0 0 0 14 1 0 0 0 0 0 0 0 0 0 0 0 0 0 0 0 0 0 0 0 0 0 0
CIN
-26 -40 -0 -12 -9 -15 -1 -1 -1 -1 -1 -1 -1 -2 -1 -2 -12 -25 -40 -57 -75 -0 -0 -3 -72 -0 -0 -0 -0 -0 -0 -0
-108 -29 -3 -4 -0 -8 -5 -5 -2 -1 -3 -7 -6 -3 -3 -11 -25 -34 -53 -59 -79 -0 -0 -0 -0 -0 -0 -0 -0 -0 -0 -0
-144 -21 -57 -88 -55 -5 -0 -21 -27 -27 -49 -81 -65 -46 -44 -80 -59 -56 -58 -82 -82 -39 -0 -0 -0 -0 -0 -0 -0 -0 -0 -0
-211 -0 -0 -0 -0 -6 -8 -11 -53 -117 -141 -0 -0 -29 -116 -87 -77 -81 -77 -99 -127 -238 -0 -0 -0 -0 -0 -0 -0 -0 -0 -0
-0 -273 -0 -1 -0 -42 -17 -54 -115 -0 -0 -212 -208 -108 -180 -158 -166 -170 -169 -212 -254 -18 -0 -0 -0 -0 -0 -0 -0 -0 -0 -0
-0 -0 -0 -0 -0 -0 -55 -84 -0 -0 -0 -240 -209 -0 -206 -321 -0 -0 -58 -0 -0 -0 -0 -0 -0 -0 -0 -0 -0 -0 -0 -0
-0 -0 -1 -1 -0 -0 -32 -6 -0 -46 -174 -0 -0 -0 -280 -396 -0 -0 -0 -0 -0 -0 -0 -0 -0 -0 -0 -0 -0 -0 -0 -0
-0 -0 -0 -0 -0 -0 -0 -0 -0 -164 -161 -147 -0 -339 -329 -335 -0 -0 -0 -0 -0 -0 -0 -0 -0 -0 -0 -0 -0 -0 -0 -0
-0 -0 -0 -0 -0 -0 -0 -0 -0 -155 -170 -196 -192 -217 -222 -257 -258 -0 -0 -0 -0 -0 -0 -0 -0 -0 -0 -0 -0 -0 -0 -0
-0 -0 -0 -0 -0 -0 -0 -0 -0 -0 -0 -168 -125 -110 -126 -213 -217 -193 -33 -0 -0 -0 -0 -0 -0 -0 -0 -0 -0 -0 -0 -0
-0 -0 -0 -0 -0 -0 -0 -0 -0 -0 -0 -0 -107 -109 -124 -157 -178 -187 -0 -0 -0 -0 -0 -0 -0 -0 -0 -0 -0 -0 -0 -0
-0 -0 -0 -0 -0 -0 -0 -0 -0 -0 -0 -0 -0 -171 -124 -137 -158 -177 -0 -0 -0 -0 -0 -0 -0 -0 -0 -0 -0 -0 -0 -0
-0 -0 -0 -0 -0 -0 -0 -0 -0 -0 -0 -0 -232 -179 -99 -123 -146 -0 -0 -0 -0 -0 -0 -0 -0 -0 -0 -0 -0 -0 -0 -0
-0 -0 -0 -0 -0 -0 -0 -0 -0 -0 -0 -0 -0 -0 -120 -132 -174 -67 -0 -0 -0 -0 -0 -0 -0 -0 -0 -0 -0 -0 -0 -0
-0 -0 -0 -0 -0 -0 -0 -0 -0 -0 -0 -0 -0 -0 -0 -197 -225 -0 -0 -0 -0 -0 -0 -0 -0 -0 -0 -0 -0 -0 -0 -0
-0 -0 -0 -0 -0 -0 -0 -0 -0 -0 -0 -0 -0 -74 -118 -114 -140 -0 -0 -0 -0 -0 -0 -0 -0 -0 -0 -0 -0 -0 -0 -0
-0 -0 -0 -0 -0 -0 -0 -0 -0 -0 -0 -0 -33 -199 -181 -171 -0 -0 -0 -0 -0 -0 -0 -0 -0 -0 -0 -0 -0 -0 -0 -0
-0 -0 -0 -0 -0 -0 -0 -0 -0 -0 -0 -0 -0 -190 -225 -237 -0 -0 -0 -0 -0 -0 -0 -0 -0 -0 -0 -0 -0 -0 -0 -0
-0 -0 -0 -0 -0 -0 -0 -0 -0 -0 -0 -0 -0 -225 -185 -162 -0 -0 -0 -0 -0 -0 -0 -0 -0 -0 -0 -0 -0 -0 -0 -0
-0 -0 -0 -0 -0 -0 -0 -0 -232 -159 -0 -0 -0 -0 -0 -0 -0 -0 -0 -0 -0 -0 -0 -0 -0 -0 -0 -0 -0 -0 -0 -0
Wind_Speed
8 11 15 19 23 16 15 20 18 19 19 21 22 21 21 20 19 19 17 14 10 9 11 12 14 16 12 17 16 13 7 5
12 9 10 17 17 17 9 19 18 18 19 19 19 20 21 19 18 17 16 13 11 7 10 13 14 19 20 19 15 12 6 5
13 17 21 17 11 14 19 18 20 19 18 18 12 9 12 11 14 16 14 13 10 9 10 12 13 15 14 15 11 4 4 3
10 12 15 19 13 7 6 12 9 10 10 11 8 9 9 10 13 15 13 13 10 9 9 10 9 5 5 10 4 5 3 3
11 13 16 17 16 12 5 3 5 6 10 9 9 8 8 6 6 5 5 10 3 4 4 4 6 4 5 4 5 4 2 3
12 14 14 14 12 11 8 7 7 7 8 11 9 6 6 5 4 5 4 4 5 4 3 5 6 4 6 5 6 4 3 3
11 14 12 12 11 8 7 8 6 7 8 8 8 7 6 5 4 4 4 5 4 4 4 5 5 5 5 6 5 5 5 3
9 10 9 11 9 7 7 6 6 8 8 8 7 7 7 7 6 4 4 4 4 5 5 5 4 4 5 4 6 5 5 5
7 11 7 10 9 8 6 5 5 8 6 8 7 7 6 8 5 4 4 5 6 4 3 4 5 3 5 4 4 6 5 5
4 8 11 9 10 6 6 4 4 5 5 5 7 8 7 6 4 5 5 4 5 4 4 4 4 4 4 4 4 4 5 6
7 8 11 12 11 8 4 6 5 2 3 5 6 6 6 5 5 5 5 5 5 6 3 4 4 4 4 4 3 4 5 4
10 9 9 9 9 6 4 3 5 2 3 4 2 2 3 5 4 5 5 5 4 4 4 2 3 4 2 3 2 3 2 5
9 13 12 10 9 9 6 5 6 6 4 6 3 4 6 6 4 5 5 6 7 6 4 5 1 3 4 2 2 3 4 2
9 10 11 10 9 9 8 8 6 9 7 7 9 8 7 6 7 6 7 4 5 6 6 3 2 4 4 2 1 3 1 3
12 11 12 9 10 7 5 3 5 9 11 9 7 7 7 6 7 6 7 7 7 5 6 8 5 3 1 5 2 4 2 1
14 14 14 12 11 11 13 10 11 10 10 8 6 7 6 7 7 7 7 5 6 7 6 4 5 5 2 2 1 5 4 3
13 14 14 14 13 13 11 11 9 6 5 7 9 7 8 7 7 7 8 8 6 7 7 6 4 5 4 3 3 1 2 2
15 16 17 16 15 14 13 15 12 7 8 9 8 7 6 9 8 8 8 9 8 7 7 8 6 5 4 5 4 4 3 3
17 20 19 18 18 19 19 16 14 11 12 10 10 7 5 8 10 9 7 7 6 6 7 6 7 7 7 4 3 3 3 2
23 23 23 23 22 21 19 20 12 11 13 10 9 9 9 11 11 10 9 8 6 6 5 5 7 6 8 5 3 3 3 2
Wind_Direction
94 148 171 85 84 75 104 114 117 116 118 121 121 121 121 120 118 113 108 100 92 87 87 76 82 83 101 124 114 111 102 110
98 101 125 119 115 137 97 101 109 110 110 107 112 113 115 118 116 115 112 109 105 78 74 61 58 65 94 113 115 106 102 100
98 118 110 96 97 147 147 129 118 117 109 103 99 106 109 108 116 116 113 111 96 80 58 62 48 65 89 104 98 91 111 105
113 115 119 123 129 178 151 133 135 127 122 117 113 104 109 116 121 119 123 104 106 92 74 60 50 59 77 96 87 105 99 110
129 133 131 142 144 156 188 156 127 119 129 121 119 113 116 128 129 130 130 113 108 100 86 62 88 75 69 101 104 102 119 106
139 136 147 147 148 173 166 140 135 133 141 126 126 128 132 140 132 129 125 112 124 116 107 90 94 100 105 97 113 125 109 96
143 152 158 161 163 155 141 150 136 143 144 132 139 127 146 136 137 135 134 123 148 130 132 131 121 111 89 111 123 124 130 119
130 147 161 153 145 135 137 136 134 137 144 153 126 141 150 144 145 162 138 144 160 160 159 150 137 124 116 115 126 145 134 134
123 129 125 124 125 120 115 123 126 137 141 118 138 142 158 149 141 154 173 170 157 152 143 136 127 117 140 144 145 137 143 161
110 116 119 119 117 114 103 118 119 112 108 131 148 159 159 147 153 170 182 159 153 160 159 129 140 158 161 190 161 156 158 152
124 106 127 126 114 92 100 97 107 73 130 163 173 157 150 151 169 164 168 154 160 163 135 142 178 180 185 186 189 186 177 152
146 143 114 107 115 129 88 91 95 280 244 260 153 122 177 165 162 166 164 152 160 148 149 160 167 169 176 175 218 240 205 163
165 158 154 151 155 153 161 174 167 211 237 270 255 209 191 182 182 165 174 177 178 177 144 151 152 152 102 19 307 292 251 243
179 175 171 170 162 166 182 182 195 201 227 246 230 205 194 188 176 187 177 159 178 175 156 138 156 168 148 95 267 308 308 229
189 184 183 183 178 169 173 175 213 216 225 234 236 202 207 198 180 187 183 178 190 186 181 166 174 203 230 142 121 224 354 309
185 189 193 186 187 188 194 199 205 216 223 230 222 212 209 204 189 182 182 176 189 192 175 170 136 173 174 196 38 142 181 297
192 190 202 199 197 195 195 210 217 208 203 211 216 211 203 192 189 175 189 196 198 181 168 178 173 151 153 140 174 151 71 149
183 191 202 206 204 216 217 220 216 202 206 209 218 219 207 202 188 191 204 198 194 193 187 177 176 142 141 158 174 165 183 186
189 191 200 204 211 218 220 224 220 217 216 214 206 203 199 206 180 183 191 196 182 183 185 175 165 167 169 164 182 168 177 208
194 199 202 204 208 215 218 222 221 218 217 212 212 207 198 191 185 181 181 176 171 168 179 170 162 163 171 161 174 153 187 148